Time,TemperatureF,DewpointF,PressureIn,WindDirection,WindDirectionDegrees,WindSpeedMPH,WindSpeedGustMPH,Humidity,HourlyPrecipIn,Conditions,Clouds,dailyrainin,SolarRadiationWatts/m^2,SoftwareType,DateUTC
2013-06-04 00:02:00,70.0,68.0,-100.00,East,86,0.0,0.0,92,0.00,,,0.00,0.000000,,2013-06-04 05:02:00,
2013-06-04 00:22:00,69.0,67.0,-100.00,NE,48,0.0,0.0,93,0.00,,,0.00,0.000000,,2013-06-04 05:22:00,
2013-06-04 00:32:00,69.0,67.0,-100.00,NE,48,0.0,0.0,93,0.00,,,0.00,0.000000,,2013-06-04 05:32:00,
2013-06-04 00:42:00,69.0,67.0,-100.00,NE,48,0.0,0.0,93,0.00,,,0.00,0.000000,,2013-06-04 05:42:00,
2013-06-04 00:52:00,69.0,67.0,-100.00,NE,48,0.0,0.0,93,0.00,,,0.00,0.000000,,2013-06-04 05:52:00,
2013-06-04 01:02:00,69.0,67.0,-100.00,NE,48,0.0,0.0,93,0.00,,,0.00,0.000000,,2013-06-04 06:02:00,
2013-06-04 01:22:00,68.0,66.0,-100.00,North,5,0.0,0.0,94,0.00,,,0.00,0.000000,,2013-06-04 06:22:00,
2013-06-04 01:32:00,68.0,66.0,-100.00,North,5,0.0,0.0,94,0.00,,,0.00,0.000000,,2013-06-04 06:32:00,
2013-06-04 01:42:00,68.0,66.0,-100.00,North,5,0.0,0.0,94,0.00,,,0.00,0.000000,,2013-06-04 06:42:00,
2013-06-04 01:52:00,68.0,66.0,-100.00,North,5,0.0,0.0,94,0.00,,,0.00,0.000000,,2013-06-04 06:52:00,
2013-06-04 02:02:00,68.0,66.0,-100.00,North,5,0.0,0.0,94,0.00,,,0.00,0.000000,,2013-06-04 07:02:00,
2013-06-04 02:22:00,69.0,67.0,-100.00,NNW,343,0.0,0.0,93,0.00,,,0.00,0.000000,,2013-06-04 07:22:00,
2013-06-04 02:32:00,69.0,67.0,-100.00,NNW,343,0.0,0.0,93,0.00,,,0.00,0.000000,,2013-06-04 07:32:00,
2013-06-04 02:42:00,69.0,67.0,-100.00,NNW,343,0.0,0.0,93,0.00,,,0.00,0.000000,,2013-06-04 07:42:00,
2013-06-04 02:52:00,69.0,67.0,-100.00,NNW,343,0.0,0.0,93,0.00,,,0.00,0.000000,,2013-06-04 07:52:00,
2013-06-04 03:02:00,69.0,67.0,-100.00,NNW,343,0.0,0.0,93,0.00,,,0.00,0.000000,,2013-06-04 08:02:00,
2013-06-04 03:22:00,70.0,66.0,-100.00,NE,46,2.0,4.0,86,0.00,,,0.00,0.000000,,2013-06-04 08:22:00,
2013-06-04 03:32:00,70.0,66.0,-100.00,NE,46,2.0,4.0,86,0.00,,,0.00,0.000000,,2013-06-04 08:32:00,
2013-06-04 03:42:00,70.0,66.0,-100.00,NE,46,2.0,4.0,86,0.00,,,0.00,0.000000,,2013-06-04 08:42:00,
2013-06-04 03:52:00,70.0,66.0,-100.00,NE,46,2.0,4.0,86,0.00,,,0.00,0.000000,,2013-06-04 08:52:00,
2013-06-04 04:02:00,70.0,66.0,-100.00,NE,46,2.0,4.0,86,0.00,,,0.00,0.000000,,2013-06-04 09:02:00,
2013-06-04 04:22:00,70.0,66.0,-100.00,East,81,3.0,4.0,86,0.00,,,0.00,0.000000,,2013-06-04 09:22:00,
2013-06-04 04:33:00,70.0,66.0,-100.00,East,81,3.0,4.0,86,0.00,,,0.00,0.000000,,2013-06-04 09:33:00,
2013-06-04 04:43:00,70.0,66.0,-100.00,East,81,3.0,4.0,86,0.00,,,0.00,0.000000,,2013-06-04 09:43:00,
2013-06-04 04:53:00,70.0,66.0,-100.00,East,81,3.0,4.0,86,0.00,,,0.00,0.000000,,2013-06-04 09:53:00,
2013-06-04 05:02:00,70.0,66.0,-100.00,East,81,3.0,4.0,86,0.00,,,0.00,0.000000,,2013-06-04 10:02:00,
2013-06-04 06:22:00,69.0,65.0,-100.00,South,172,2.0,5.0,88,-99.99,,,0.00,0.000000,,2013-06-04 11:22:00,
2013-06-04 06:32:00,69.0,65.0,-100.00,South,172,2.0,5.0,88,-99.99,,,0.00,0.000000,,2013-06-04 11:32:00,
2013-06-04 06:43:00,69.0,65.0,-100.00,South,172,2.0,5.0,88,-99.99,,,0.00,0.000000,,2013-06-04 11:43:00,
2013-06-04 06:52:00,69.0,65.0,-100.00,South,172,2.0,5.0,88,-99.99,,,0.00,0.000000,,2013-06-04 11:52:00,
2013-06-04 07:02:00,69.0,65.0,-100.00,South,172,2.0,5.0,88,-99.99,,,0.00,0.000000,,2013-06-04 12:02:00,
2013-06-04 07:22:00,71.0,68.0,-100.00,ESE,103,2.0,4.0,89,0.00,,,0.00,25.000000,,2013-06-04 12:22:00,
2013-06-04 07:32:00,71.0,68.0,-100.00,ESE,103,2.0,4.0,89,0.00,,,0.00,25.000000,,2013-06-04 12:32:00,
2013-06-04 07:42:00,71.0,68.0,-100.00,ESE,103,2.0,4.0,89,0.00,,,0.00,25.000000,,2013-06-04 12:42:00,
2013-06-04 07:53:00,71.0,68.0,-100.00,ESE,103,2.0,4.0,89,0.00,,,0.00,25.000000,,2013-06-04 12:53:00,
2013-06-04 08:02:00,71.0,68.0,-100.00,ESE,103,2.0,4.0,89,0.00,,,0.00,25.000000,,2013-06-04 13:02:00,
2013-06-04 08:22:00,74.0,67.0,-100.00,ESE,121,4.0,7.0,79,0.00,,,0.00,169.000000,,2013-06-04 13:22:00,
2013-06-04 08:32:00,74.0,67.0,-100.00,ESE,121,4.0,7.0,79,0.00,,,0.00,169.000000,,2013-06-04 13:32:00,
2013-06-04 08:42:00,74.0,67.0,-100.00,ESE,121,4.0,7.0,79,0.00,,,0.00,169.000000,,2013-06-04 13:42:00,
2013-06-04 08:52:00,74.0,67.0,-100.00,ESE,121,4.0,7.0,79,0.00,,,0.00,169.000000,,2013-06-04 13:52:00,
2013-06-04 09:02:00,74.0,67.0,-100.00,ESE,121,4.0,7.0,79,0.00,,,0.00,169.000000,,2013-06-04 14:02:00,
2013-06-04 09:22:00,78.0,69.0,-100.00,SE,131,6.0,11.0,73,0.00,,,0.00,388.000000,,2013-06-04 14:22:00,
2013-06-04 09:32:00,78.0,69.0,-100.00,SE,131,6.0,11.0,73,0.00,,,0.00,388.000000,,2013-06-04 14:32:00,
2013-06-04 09:43:00,78.0,69.0,-100.00,SE,131,6.0,11.0,73,0.00,,,0.00,388.000000,,2013-06-04 14:43:00,
2013-06-04 09:52:00,78.0,69.0,-100.00,SE,131,6.0,11.0,73,0.00,,,0.00,388.000000,,2013-06-04 14:52:00,
2013-06-04 10:02:00,78.0,69.0,-100.00,SE,131,6.0,11.0,73,0.00,,,0.00,388.000000,,2013-06-04 15:02:00,
2013-06-04 10:03:00,81.0,70.0,-100.00,SSE,152,6.0,11.0,69,0.00,,,0.00,610.000000,,2013-06-04 15:03:00,
2013-06-04 10:22:00,81.0,70.0,-100.00,SSE,152,6.0,11.0,69,0.00,,,0.00,610.000000,,2013-06-04 15:22:00,
2013-06-04 10:33:00,81.0,70.0,-100.00,SSE,152,6.0,11.0,69,0.00,,,0.00,610.000000,,2013-06-04 15:33:00,
2013-06-04 10:42:00,81.0,70.0,-100.00,SSE,152,6.0,11.0,69,0.00,,,0.00,610.000000,,2013-06-04 15:42:00,
2013-06-04 10:53:00,81.0,70.0,-100.00,SSE,152,6.0,11.0,69,0.00,,,0.00,610.000000,,2013-06-04 15:53:00,
2013-06-04 11:23:00,85.0,72.0,-100.00,SE,141,3.0,11.0,65,0.00,,,0.00,816.000000,,2013-06-04 16:23:00,
2013-06-04 11:33:00,85.0,72.0,-100.00,SE,141,3.0,11.0,65,0.00,,,0.00,816.000000,,2013-06-04 16:33:00,
2013-06-04 11:42:00,85.0,72.0,-100.00,SE,141,3.0,11.0,65,0.00,,,0.00,816.000000,,2013-06-04 16:42:00,
2013-06-04 11:53:00,85.0,72.0,-100.00,SE,141,3.0,11.0,65,0.00,,,0.00,816.000000,,2013-06-04 16:53:00,
2013-06-04 12:02:00,85.0,72.0,-100.00,SE,141,3.0,11.0,65,0.00,,,0.00,816.000000,,2013-06-04 17:02:00,
2013-06-04 12:23:00,87.0,71.0,-100.00,ENE,63,5.0,7.0,60,0.00,,,0.00,717.000000,,2013-06-04 17:23:00,
2013-06-04 12:33:00,87.0,71.0,-100.00,ENE,63,5.0,7.0,60,0.00,,,0.00,717.000000,,2013-06-04 17:33:00,
2013-06-04 12:42:00,87.0,71.0,-100.00,ENE,63,5.0,7.0,60,0.00,,,0.00,717.000000,,2013-06-04 17:42:00,
2013-06-04 12:52:00,87.0,71.0,-100.00,ENE,63,5.0,7.0,60,0.00,,,0.00,717.000000,,2013-06-04 17:52:00,
2013-06-04 13:02:00,87.0,71.0,-100.00,ENE,63,5.0,7.0,60,0.00,,,0.00,717.000000,,2013-06-04 18:02:00,
2013-06-04 13:22:00,88.0,70.0,-100.00,ENE,69,4.0,8.0,55,0.00,,,0.00,1077.000000,,2013-06-04 18:22:00,
2013-06-04 13:32:00,88.0,70.0,-100.00,ENE,69,4.0,8.0,55,0.00,,,0.00,1077.000000,,2013-06-04 18:32:00,
2013-06-04 13:42:00,88.0,70.0,-100.00,ENE,69,4.0,8.0,55,0.00,,,0.00,1077.000000,,2013-06-04 18:42:00,
2013-06-04 13:53:00,88.0,70.0,-100.00,ENE,69,4.0,8.0,55,0.00,,,0.00,1077.000000,,2013-06-04 18:53:00,
2013-06-04 14:02:00,88.0,70.0,-100.00,ENE,69,4.0,8.0,55,0.00,,,0.00,1077.000000,,2013-06-04 19:02:00,
2013-06-04 14:22:00,89.0,70.0,-100.00,ESE,118,4.0,10.0,53,0.00,,,0.00,815.000000,,2013-06-04 19:22:00,
2013-06-04 14:33:00,89.0,70.0,-100.00,ESE,118,4.0,10.0,53,0.00,,,0.00,815.000000,,2013-06-04 19:33:00,
2013-06-04 14:42:00,89.0,70.0,-100.00,ESE,118,4.0,10.0,53,0.00,,,0.00,815.000000,,2013-06-04 19:42:00,
2013-06-04 14:52:00,89.0,70.0,-100.00,ESE,118,4.0,10.0,53,0.00,,,0.00,815.000000,,2013-06-04 19:52:00,
2013-06-04 15:02:00,89.0,70.0,-100.00,ESE,118,4.0,10.0,53,0.00,,,0.00,815.000000,,2013-06-04 20:02:00,
2013-06-04 15:22:00,89.0,68.0,-100.00,SE,128,6.0,10.0,51,0.00,,,0.00,1020.000000,,2013-06-04 20:22:00,
2013-06-04 15:32:00,89.0,68.0,-100.00,SE,128,6.0,10.0,51,0.00,,,0.00,1020.000000,,2013-06-04 20:32:00,
2013-06-04 15:42:00,89.0,68.0,-100.00,SE,128,6.0,10.0,51,0.00,,,0.00,1020.000000,,2013-06-04 20:42:00,
2013-06-04 15:53:00,89.0,68.0,-100.00,SE,128,6.0,10.0,51,0.00,,,0.00,1020.000000,,2013-06-04 20:53:00,
2013-06-04 16:02:00,89.0,68.0,-100.00,SE,128,6.0,10.0,51,0.00,,,0.00,1020.000000,,2013-06-04 21:02:00,
2013-06-04 16:22:00,90.0,67.0,-100.00,SSE,147,5.0,10.0,47,0.00,,,0.00,799.000000,,2013-06-04 21:22:00,
2013-06-04 16:33:00,90.0,67.0,-100.00,SSE,147,5.0,10.0,47,0.00,,,0.00,799.000000,,2013-06-04 21:33:00,
2013-06-04 16:42:00,90.0,67.0,-100.00,SSE,147,5.0,10.0,47,0.00,,,0.00,799.000000,,2013-06-04 21:42:00,
2013-06-04 16:53:00,90.0,67.0,-100.00,SSE,147,5.0,10.0,47,0.00,,,0.00,799.000000,,2013-06-04 21:53:00,
2013-06-04 17:02:00,90.0,67.0,-100.00,SSE,147,5.0,10.0,47,0.00,,,0.00,799.000000,,2013-06-04 22:02:00,
2013-06-04 17:22:00,89.0,67.0,-100.00,SE,133,6.0,14.0,49,0.00,,,0.00,585.000000,,2013-06-04 22:22:00,
2013-06-04 17:33:00,89.0,67.0,-100.00,SE,133,6.0,14.0,49,0.00,,,0.00,585.000000,,2013-06-04 22:33:00,
2013-06-04 17:42:00,89.0,67.0,-100.00,SE,133,6.0,14.0,49,0.00,,,0.00,585.000000,,2013-06-04 22:42:00,
2013-06-04 17:52:00,89.0,67.0,-100.00,SE,133,6.0,14.0,49,0.00,,,0.00,585.000000,,2013-06-04 22:52:00,
2013-06-04 18:02:00,89.0,67.0,-100.00,SE,133,6.0,14.0,49,0.00,,,0.00,585.000000,,2013-06-04 23:02:00,
2013-06-04 18:22:00,90.0,69.0,-100.00,SSE,151,4.0,11.0,50,0.00,,,0.00,524.000000,,2013-06-04 23:22:00,
2013-06-04 18:32:00,90.0,69.0,-100.00,SSE,151,4.0,11.0,50,0.00,,,0.00,524.000000,,2013-06-04 23:32:00,
2013-06-04 18:42:00,90.0,69.0,-100.00,SSE,151,4.0,11.0,50,0.00,,,0.00,524.000000,,2013-06-04 23:42:00,
2013-06-04 18:52:00,90.0,69.0,-100.00,SSE,151,4.0,11.0,50,0.00,,,0.00,524.000000,,2013-06-04 23:52:00,
2013-06-04 19:02:00,90.0,69.0,-100.00,SSE,151,4.0,11.0,50,0.00,,,0.00,524.000000,,2013-06-05 00:02:00,
2013-06-04 19:22:00,88.0,66.0,-100.00,SE,140,5.0,12.0,49,0.00,,,0.00,301.000000,,2013-06-05 00:22:00,
2013-06-04 19:33:00,88.0,66.0,-100.00,SE,140,5.0,12.0,49,0.00,,,0.00,301.000000,,2013-06-05 00:33:00,
2013-06-04 19:42:00,88.0,66.0,-100.00,SE,140,5.0,12.0,49,0.00,,,0.00,301.000000,,2013-06-05 00:42:00,
2013-06-04 19:52:00,88.0,66.0,-100.00,SE,140,5.0,12.0,49,0.00,,,0.00,301.000000,,2013-06-05 00:52:00,
2013-06-04 20:02:00,88.0,66.0,-100.00,SE,140,5.0,12.0,49,0.00,,,0.00,301.000000,,2013-06-05 01:02:00,
2013-06-04 20:22:00,83.0,67.0,-100.00,South,178,0.0,8.0,58,0.00,,,0.00,98.000000,,2013-06-05 01:22:00,
2013-06-04 20:32:00,83.0,67.0,-100.00,South,178,0.0,8.0,58,0.00,,,0.00,98.000000,,2013-06-05 01:32:00,
2013-06-04 20:42:00,83.0,67.0,-100.00,South,178,0.0,8.0,58,0.00,,,0.00,98.000000,,2013-06-05 01:42:00,
2013-06-04 20:52:00,83.0,67.0,-100.00,South,178,0.0,8.0,58,0.00,,,0.00,98.000000,,2013-06-05 01:52:00,
2013-06-04 21:02:00,83.0,67.0,-100.00,South,178,0.0,8.0,58,0.00,,,0.00,98.000000,,2013-06-05 02:02:00,
2013-06-04 21:22:00,78.0,69.0,-100.00,SSW,202,0.0,0.0,75,0.00,,,0.00,3.000000,,2013-06-05 02:22:00,
2013-06-04 21:32:00,78.0,69.0,-100.00,SSW,202,0.0,0.0,75,0.00,,,0.00,3.000000,,2013-06-05 02:32:00,
2013-06-04 21:42:00,78.0,69.0,-100.00,SSW,202,0.0,0.0,75,0.00,,,0.00,3.000000,,2013-06-05 02:42:00,
2013-06-04 21:52:00,78.0,69.0,-100.00,SSW,202,0.0,0.0,75,0.00,,,0.00,3.000000,,2013-06-05 02:52:00,
2013-06-04 22:02:00,78.0,69.0,-100.00,SSW,202,0.0,0.0,75,0.00,,,0.00,3.000000,,2013-06-05 03:02:00,
2013-06-04 22:33:00,75.0,71.0,-100.00,WSW,245,0.0,0.0,88,0.00,,,0.00,0.000000,,2013-06-05 03:33:00,
2013-06-04 22:43:00,75.0,71.0,-100.00,WSW,245,0.0,0.0,88,0.00,,,0.00,0.000000,,2013-06-05 03:43:00,
2013-06-04 22:53:00,75.0,71.0,-100.00,WSW,245,0.0,0.0,88,0.00,,,0.00,0.000000,,2013-06-05 03:53:00,
2013-06-04 23:02:00,75.0,71.0,-100.00,WSW,245,0.0,0.0,88,0.00,,,0.00,0.000000,,2013-06-05 04:02:00,
2013-06-04 23:23:00,74.0,71.0,-100.00,NW,310,0.0,0.0,89,0.00,,,0.00,0.000000,,2013-06-05 04:23:00,
2013-06-04 23:33:00,74.0,71.0,-100.00,NW,310,0.0,0.0,89,0.00,,,0.00,0.000000,,2013-06-05 04:33:00,
2013-06-04 23:42:00,74.0,71.0,-100.00,NW,310,0.0,0.0,89,0.00,,,0.00,0.000000,,2013-06-05 04:42:00,
2013-06-04 23:53:00,74.0,71.0,-100.00,NW,310,0.0,0.0,89,0.00,,,0.00,0.000000,,2013-06-05 04:53:00,